Regional Weather Roundup
Issued by NWS

Home | Current Version | Previous Version | Graphics & Text | Print | Product List | Glossary On
Versions: 1 2 3 4 5 6 7 8 9 10 11 12 13 14 15 16 17 18 19 20 21 22 23 24 25 26 27 28 29 30 31 32 33 34 35 36 37 38 39 40 41 42 43 44 45 46 47 48 49 50
479
ASUS43 KLOT 191108
RWRIL

ILLINOIS REGIONAL WEATHER ROUNDUP
NATIONAL WEATHER SERVICE CHICAGO/ROMEOVILLE IL
500 AM CST SUN FEB 19 2017

NOTE: "FAIR" INDICATES FEW OR NO CLOUDS BELOW 12,000 FEET WITH NO
SIGNIFICANT WEATHER AND/OR OBSTRUCTIONS TO VISIBILITY.

* THESE STATIONS ARE NOT UNDER NWS QUALITY CONTROL. THEY ALSO MAY NOT
  REPORT WEATHER SUCH AS PRECIPITATION OR FOG.

ILZ001-002-007-009-015-016-024-191200-
NORTHWEST ILLINOIS

CITY           SKY/WX    TMP DP  RH WIND       PRES   REMARKS
MOLINE         CLOUDY    30  25  81 CALM      29.95R
STERLING*      CLEAR     28  27  96 CALM      29.96R
SAVANNA*       CLEAR     28  28  98 N3        29.96R FOG
$$

ILZ003-004-008-010-011-017-018-191200-
NORTH CENTRAL ILLINOIS

CITY           SKY/WX    TMP DP  RH WIND       PRES   REMARKS
ROCKFORD       CLEAR     32  29  88 CALM      29.98R
FREEPORT*      CLEAR     31  30  98 CALM      29.98R
ROCHELLE*      CLEAR     31  30  96 CALM      29.96R
DE KALB*       CLEAR     37  34  90 CALM      29.96R
PERU*          CLEAR     35  32  88 CALM      29.96R
$$

ILZ005-006-012>014-019>023-191200-
NORTHEAST ILLINOIS

CITY           SKY/WX    TMP DP  RH WIND       PRES   REMARKS
CHICAGO-OHARE  CLEAR     37  33  85 SW5       29.94R WCI  33
CHICAGO-MIDWAY PTCLDY    41  34  76 CALM      29.94R
AURORA         PTCLDY    33  29  85 CALM      29.95R
LANSING*       CLEAR     31  30  97 S3        29.95R
JOLIET*        CLEAR     33  33  98 CALM      29.95S FOG
WAUKEGAN       CLEAR     38  33  82 NW6       29.94R WCI  33
DUPAGE AIRPORT PTCLDY    33  29  85 CALM      29.94R
KANKAKEE*      CLEAR     32  31  96 CALM      29.97R
WHEELING       CLEAR     35  32  88 CALM      29.95R
MORRIS*        CLEAR     31  29  93 CALM      29.95R
ROMEOVILLE*    CLEAR     38  38  99 CALM      29.95R
NORTHERLY ISL    N/A     45  37  73 W3          N/A
$$

LMZ740>746-191200-
SOUTHERN LAKE MICHIGAN

STATION/POSITION SKY/WX   TEMP    WIND        PRES    VSBY  WAVE
                          AIR SEA DIR/SP/G                  HT/PER
                          (F)     (DEG/KT/KT) (MB)    (MI)  (FT/S)
HARRISON CRIB              50     260/  4/  4   N/A
BURNHAM HARBOR             45     240/  4/  5   N/A
CALUMET HARBOR             43     230/  2/  3 1013.4R
BURNS HARBOR               44     240/  4/  5 1014.6R
MICHIGAN CITY              43     180/  4/  5   N/A
$$

ILZ025>027-034>036-040-047-049-050-058-095>099-191200-
WEST-CENTRAL ILLINOIS

CITY           SKY/WX    TMP DP  RH WIND       PRES   REMARKS
QUINCY         CLEAR     44  42  93 S3        29.95R
GALESBURG*     CLOUDY    31  29  93 CALM        N/A
MACOMB*        CLOUDY    34  30  88 CALM      29.98R
JACKSONVILLE*  FOG       34  33  99 CALM      29.97R VSB<1/4
PITTSFIELD*    CLEAR     35  33  91 CALM      29.97R
$$

ILZ028>032-037-038-041>044-048-051>054-059>061-191200-
CENTRAL ILLINOIS

CITY           SKY/WX    TMP DP  RH WIND       PRES   REMARKS
PONTIAC        FOG       36  36  99 CALM      29.97R VSB 3/4
BLOOMINGTON    LGT RAIN  39  39 100 SW8       29.97R VSB 1/4 WCI  33
DECATUR        FOG       47  46  97 SW8       29.97R VSB 1/4
PEORIA         CLEAR     36  34  92 CALM      29.96R FOG
LACON*         CLOUDY    31  31  99 CALM      29.95R
LINCOLN*       FOG       42  42 100 CALM      29.97S VSB 1/4
SPRINGFIELD    FOG       42  42 100 S5        29.97R VSB 1/4
TAYLORVILLE    FOG       46  46 100 CALM      29.98R VSB 1/4
$$

ILZ033-039-045-046-055>057-062-063-191200-
EAST-CENTRAL ILLINOIS

CITY           SKY/WX    TMP DP  RH WIND       PRES   REMARKS
CHAMPAIGN      FOG       48  47  96 W7        29.98R VSB 1/2
RANTOUL*       FOG       48  48 100 W7        29.97R VSB 1/2
MATTOON        CLOUDY    50  50 100 W3        29.98R FOG
PARIS*         CLOUDY    49  48  96 W6        29.99S
$$

ILZ079-100>102-191200-
SOUTHWEST ILLINOIS

CITY           SKY/WX    TMP DP  RH WIND       PRES   REMARKS
ALTON          FOG       42  42 100 CALM      29.98R VSB<1/4
BELLEVILLE     FOG       44  44 100 CALM      29.97R VSB 1/4
CAHOKIA*       FOG       38  37  97 CALM      29.97R VSB 1/4
SPARTA*        MOCLDY    49  49  99 CALM      29.99R FOG
$$

ILZ064>066-069>071-074>076-080>082-084>086-088>090-092>094-191200-
SOUTH-CENTRAL ILLINOIS

CITY           SKY/WX    TMP DP  RH WIND       PRES   REMARKS
CARBONDALE     CLOUDY    52  52 100 W3        29.98S FOG
CAIRO*         FOG       45  45 100 CALM      30.00R VSB<1/4
EFFINGHAM*     CLOUDY    51  51 100 SW5       30.00R FOG
MARION         CLOUDY    52  52 100 W3        29.99S FOG
MT. VERNON     CLOUDY    51  50  96 SW5       29.99R FOG
CENTRALIA*     CLOUDY    52  51  99 CALM      29.98R FOG
SALEM*         CLOUDY    52  50  92 SW5       29.98R FOG
METROPOLIS*    FOG       45  44  99 CALM      30.01R VSB<1/4
$$

ILZ067-068-072-073-078-083-087-091-191200-
SOUTHEAST ILLINOIS

CITY           SKY/WX    TMP DP  RH WIND       PRES   REMARKS
LAWRENCEVILLE  CLOUDY    49  47  93 SW3       30.00S FOG
FLORA*         CLOUDY    52  50  93 W3        29.99S FOG
FAIRFIELD*     CLOUDY    50  50 100 CALM      29.99R FOG
HARRISBURG*    FOG       51  51 100 W3        30.00R VSB 1
ROBINSON*      CLOUDY    50  48  95 W3        30.01R
CARMI*         FOG       50  50 100 CALM      29.99S VSB 1
$$

ABBREVIATIONS USED IN REMARKS
   TC - TEMPERATURE IN CELSIUS
  WCI - WIND CHILL INDEX
   HX - HEAT INDEX
  VSB - VISIBILITY
$$





USA.gov is the U.S. government's official web portal to all federal, state and local government web resources and services.